CST,Max TemperatureF,Mean TemperatureF,Min TemperatureF,Max Dew PointF,MeanDew PointF,Min DewpointF,Max Humidity, Mean Humidity, Min Humidity, Max Sea Level PressureIn, Mean Sea Level PressureIn, Min Sea Level PressureIn, Max VisibilityMiles, Mean VisibilityMiles, Min VisibilityMiles, Max Wind SpeedMPH, Mean Wind SpeedMPH, Max Gust SpeedMPH,PrecipitationIn, CloudCover, Events, WindDirDegrees
2012-12-1,82,68,55,45,33,25,53,33,12,30.00,29.95,29.89,10,10,10,15,11,,0.00,0,,201
2012-12-2,81,66,50,56,41,30,83,46,17,30.04,29.96,29.89,10,10,6,15,7,18,0.00,0,,153
2012-12-3,81,66,52,55,31,20,89,34,10,29.98,29.92,29.86,10,10,6,14,9,21,0.00,0,,245
2012-12-4,64,54,43,35,31,24,59,43,29,30.29,30.20,30.00,10,10,7,13,8,16,0.00,0,,294
2012-12-5,73,57,41,33,32,29,67,42,21,30.27,30.10,29.91,10,10,10,14,8,,0.00,0,,183
2012-12-6,82,66,51,32,27,20,48,27,10,29.92,29.80,29.71,10,10,10,14,10,,0.00,0,,219
2012-12-7,75,63,51,27,24,21,32,24,14,29.83,29.77,29.70,10,10,10,14,9,,0.00,0,,245
2012-12-8,75,62,50,27,21,16,31,23,11,29.86,29.79,29.72,10,10,10,15,11,21,0.00,0,,230
2012-12-9,73,58,42,33,27,18,65,33,20,30.10,29.83,29.73,10,10,10,21,12,22,0.00,0,,265
2012-12-10,45,36,26,18,13,5,69,42,28,30.22,30.11,30.00,10,10,6,23,10,36,0.00,1,,7
2012-12-11,55,42,30,14,11,6,48,31,15,30.12,30.04,29.98,10,10,10,12,8,,0.00,0,,241
2012-12-12,69,51,33,18,11,4,39,24,9,30.14,30.07,29.97,10,10,10,20,11,29,0.00,0,,192
2012-12-13,66,52,39,44,26,19,80,41,21,30.07,30.01,29.92,10,10,10,22,10,29,0.00,0,,153
2012-12-14,73,60,48,47,40,29,80,57,29,29.93,29.83,29.63,10,9,2,38,19,45,0.00,3,,182
2012-12-15,61,52,43,31,29,27,58,42,29,29.96,29.89,29.84,10,10,10,12,7,,0.00,0,,246
2012-12-16,64,54,44,30,28,23,53,39,20,29.93,29.86,29.77,10,10,10,21,10,28,0.00,0,,266
2012-12-17,71,55,39,29,21,12,51,32,10,29.98,29.91,29.84,10,10,10,15,12,23,0.00,0,,245
2012-12-18,78,63,48,16,14,9,25,16,8,29.85,29.75,29.65,10,10,10,15,11,,0.00,0,,168
2012-12-19,77,62,45,30,11,-4,30,17,4,30.11,29.76,29.57,10,8,2,30,17,43,0.00,3,,259
2012-12-20,48,37,26,11,4,-2,49,27,12,30.50,30.39,30.14,10,10,10,16,8,,0.00,0,,268
2012-12-21,57,42,28,3,-1,-4,27,17,8,30.41,30.29,30.18,10,10,10,17,9,24,0.00,0,,151
2012-12-22,66,50,34,21,7,1,26,18,10,30.17,30.06,29.96,10,10,10,15,7,,0.00,1,,159
2012-12-23,73,62,50,34,29,22,43,32,23,29.98,29.94,29.87,10,10,10,14,10,23,0.00,1,,244
2012-12-24,72,54,37,26,18,12,42,25,12,29.93,29.79,29.62,10,10,10,14,9,,0.00,0,,222
2012-12-25,53,40,26,28,17,10,51,37,23,30.23,29.92,29.59,10,10,7,28,16,43,0.00,0,,320
2012-12-26,44,32,19,16,13,9,65,47,32,30.25,30.08,29.87,10,10,10,17,5,23,0.00,0,,117
2012-12-27,62,44,25,20,16,13,60,37,16,29.88,29.76,29.66,10,10,10,12,8,,0.00,0,,129
2012-12-28,51,42,33,25,19,15,53,38,27,30.17,29.98,29.80,10,10,10,20,12,29,0.00,2,,304
2012-12-29,52,40,28,15,14,12,56,39,23,30.39,30.27,30.18,10,10,10,16,7,22,0.00,0,,143
2012-12-30,46,42,37,30,20,15,73,45,30,30.19,30.05,29.92,10,10,10,22,16,31,0.05,1,Rain,145
2012-12-31,59,46,34,36,32,26,89,61,33,30.04,29.94,29.86,10,10,10,18,10,,0.00,0,,279